Terug naar catalogus

CZ-6A DEB

ActiefSSO
NORAD 55001·DEBRIS·🇨🇳 China

Gelanceerd Nov 11, 2022 vanaf Taiyuan Satellite Launch Center

Loading…

Volgende Passages (komende 24 uur)

TLE

VersSource: Space-Track

Epoch: Sep 14, 2026, 10:09 UTC

1 55001U 22151UR  26257.42314161  .00000170  00000-0  11853-3 0  9995
2 55001  98.8416 255.7034 0044844  88.6887 271.9421 14.10454559196374

Volg CZ-6A DEB in realtime met AllMySat

Download on the App Store